Showing default

PORCUPINE 1, 1272

Orbit data source: Space-Track

PORCUPINE 1, 1272 is a payload satellite owned by NRL (US) in LEO that was launched on Tue, 09 Mar 1965 UTC via a THOR SLV-2 AGENA D launch vehicle from the Air Force Western Test Range (AFWTR). Payload-class satellites include a variety of spacecraft equipped with specific instruments for various scientific and technological missions. These include communications satellites like Starlink; space stations such as the ISS; scientific satellites like the Hubble; Earth observation satellites from companies like Planet Labs, Umbra, and HawkEye 360; GPS; miniature CubeSats for education and research; and military/defense satellites.

Loading next visibility...
Identifier
1272, 1965-016H
Orbit
LEO
Country
Flag of USUS
Related business
Manufacturer
NRL
Mission
Defense Calibration
Bus & Motor
NRL 9", Unknown motor
Mass
4 kg wet, 4 kg dry
Launch date (UTC)
1965-03-09 (60 years ago)
Launch vehicle
THOR SLV-2 AGENA D
Launch site
Air Force Western Test Range (AFWTR)
Object type
Payload
Rocket body
Debris
Shape & HBR
Sphere + 12 Rod, 7.6 m
Radar Cross Section
0.031 m², Medium (>0.1 m² and < 1m²)

Expand to show TLE details & history
Last TLE update: 8 hours ago

TLE from 8 hours ago
0 PORCUPINE 1
1 01272U 65016H   25242.85867264  .00000026  00000-0  58427-4 0  9999
2 01272  70.0802 146.4047 0020618 149.2877 210.9440 13.94491884 75904
Epoch: 2025-08-30T20:36Z
TLE epoch observation values (Epoch: 2025-08-30T20:36:29.316Z)
Latitude
0.00001°
Longitude
-142.00438°
Altitude
928.151 km
Speed
7.382 km/s
True Right ascension
09h 45m 37s
True Declination
0° 00' 00"
Sunlit
Object was in daylight at epoch
Visualization orbit readout
Latitude
Unknown
Longitude
Unknown
Altitude
Unknown
Speed
Unknown
Apparent Right ascension
Unknown
Apparent Declination
Unknown
Sunlit
N/A
Visualization observer readout
Local Sidereal Time
20:19:21
Azimuth
Unknown
Elevation
Unknown
Doppler factor
Unknown
Orbital elements
Apogee altitude
925.997 km
Perigee altitude
895.939 km
Semi-major axis
7,289.105 km
Eccentricity
0.00206
Inclination
70.0802°
RAAN
146.4047°
Arg. of periapsis
149.2877°
True anomaly
210.82278°
Mean anomaly
210.944°
Eccentric anomaly
210.88336°
Mean motion
3.48764 °/min
Orbital period
103.22 mins
BSTAR
0.000058427
Loading maneuver chart data...
Computing Atmospheric mass density...
Loading historical data...
Loading historical data...
Loading historical data...
Loading historical data...
Loading historical data...
Loading historical data...
Loading historical data...

Documentation

Showing up to 5 results
|